Location: Newark
(25.4800°N, 85.7200°E)
Time: 23:44:01
(UTC+00:00)

Explorer 11/Cluster Stage 4 - Pass Details

Date: 24 August 2019
Orbit: 467 x 1260 km, 28.8° (Epoch: 21 September)

Event Time Altitude Azimuth Distance (km) Brightness Sun altitude
Rises 07:53:54 0° 283° (WNW) 4,200 10.6 63.5°
Reaches altitude 10° 07:56:54 10° 284° (WNW) 3,212 10.2 62.9°
Maximum altitude 08:05:06 82° 11° (N) 1,167 8.6 61.3°
Drops below altitude 10° 08:12:12 10° 100° (E) 2,803 9.3 59.8°
Sets 08:14:40 0° 101° (E) 3,643 9.7 59.3°
